Fort Rucker / Ozark, AL

9:16 PM CDT on April 23, 2017 (GMT -0500)
Fort Rucker / Ozark

Weather History for KLOR - February, 2014

Change the Weather History Date:

Wednesday, February 26, 2014

  Actual Average (KOZR) Record (KOZR)
Temperature  
Mean Temperature 47 °F -  
Max Temperature 55 °F 64 °F 78 °F (1999)
Min Temperature 37 °F 42 °F 33 °F (2002)
Degree Days  
Heating Degree Days 18    
Moisture  
Dew Point 43 °F    
Average Humidity 84    
Maximum Humidity 97    
Minimum Humidity 62    
Precipitation  
Precipitation 0.41 in - - ()
Sea Level Pressure  
Sea Level Pressure 29.90 in    
Wind  
Wind Speed 5 mph (North)    
Max Wind Speed 20 mph    
Max Gust Speed 25 mph    
Visibility 8 miles    
Events Rain    
Averages and records for this station are not official NWS values.
T = Trace of Precipitation, MM = Missing Value Source: NWS Daily Summary

Daily Weather History Graph

Daily Weather History Graph

Search for Another Location

Airport or City:

Trip Planner

Search our weather history database for the weather conditions in past years. The results will help you decide how hot, cold, wet, or windy it might be!

Date:

Astronomy

Feb. 26, 2014 Rise Set
Actual Time 6:13 AM CST 5:38 PM CST
Civil Twilight 5:48 AM CST 6:03 PM CST
Nautical Twilight 5:20 AM CST 6:31 PM CST
Astronomical Twilight 4:52 AM CST 6:59 PM CST
Moon 3:50 AM CST (2/26) 2:59 PM CST (2/26)
Length of Visible Light 12h 14m
Length of Day
11h 25m
Waning Crescent, 10% of the Moon is Illuminated
Feb 26
Waning Crescent
Mar 1
New
Mar 8
First Quarter
Mar 16
Full
Mar 23
Last Quarter

Hourly Weather History & Observations

Time (CST) Temp. Windchill Dew Point Humidity Pressure Visibility Wind Dir Wind Speed Gust Speed Precip Events Conditions
12:53 AM 55.9 °F - 53.1 °F 90% 29.88 in 8.0 mi Calm Calm - N/A   Partly Cloudy
1:53 AM 55.9 °F - 51.1 °F 84% 29.88 in 6.0 mi Calm Calm - 0.00 in Rain Light Rain
2:24 AM 54.0 °F - 52.0 °F 93% 29.87 in 2.5 mi Calm Calm - 0.08 in Rain Rain
2:31 AM 54.0 °F - 53.1 °F 97% 29.87 in 3.0 mi Calm Calm - 0.10 in Rain Heavy Rain
2:53 AM 55.0 °F - 52.0 °F 89% 29.88 in 3.0 mi WNW 4.6 mph - 0.13 in Rain Rain
3:53 AM 54.0 °F - 52.0 °F 93% 29.88 in 5.0 mi Calm Calm - 0.09 in Rain Light Rain
4:25 AM 54.0 °F - 52.0 °F 93% 29.85 in 2.0 mi Calm Calm - 0.01 in Rain Light Rain
4:33 AM 54.0 °F - 52.0 °F 93% 29.85 in 1.8 mi Variable 3.5 mph - 0.01 in Rain Light Rain
4:36 AM 54.0 °F - 52.0 °F 93% 29.86 in 2.0 mi North 6.9 mph - 0.02 in Rain Light Rain
4:53 AM 54.0 °F - 52.0 °F 93% 29.84 in 3.0 mi Calm Calm - 0.03 in Rain Light Rain
5:04 AM 54.0 °F - 53.1 °F 97% 29.85 in 2.5 mi Calm Calm - 0.01 in Rain Light Rain
5:26 AM 54.0 °F - 52.0 °F 93% 29.85 in 3.0 mi Calm Calm - 0.03 in Rain Light Rain
5:53 AM 54.0 °F - 52.0 °F 93% 29.86 in 4.0 mi North 8.1 mph - 0.06 in Rain Light Rain
6:53 AM 52.0 °F - 50.0 °F 93% 29.91 in 5.0 mi North 13.8 mph 21.9 mph 0.04 in Rain Light Rain
7:23 AM 52.0 °F - 48.9 °F 89% 29.91 in 5.0 mi North 10.4 mph - 0.01 in Rain Light Rain
7:42 AM 51.1 °F - 48.9 °F 92% 29.91 in 4.0 mi NE 8.1 mph - 0.03 in Rain Light Rain
7:53 AM 51.1 °F - 48.0 °F 89% 29.92 in 5.0 mi NNE 10.4 mph 17.3 mph 0.03 in Rain Light Rain
8:42 AM 48.9 °F - 46.0 °F 90% 29.93 in 9.0 mi NNE 19.6 mph 24.2 mph 0.02 in Rain Light Rain
8:53 AM 48.9 °F - 45.0 °F 86% 29.94 in 10.0 mi NNE 11.5 mph 20.7 mph 0.02 in   Overcast
9:10 AM 48.0 °F - 45.0 °F 89% 29.94 in 10.0 mi NNE 10.4 mph 17.3 mph N/A   Overcast
9:20 AM 48.0 °F - 44.1 °F 86% 29.94 in 10.0 mi North 10.4 mph 20.7 mph N/A   Overcast
9:30 AM 48.0 °F - 45.0 °F 89% 29.95 in 10.0 mi North 15.0 mph 19.6 mph N/A   Overcast
9:53 AM 46.9 °F - 43.0 °F 86% 29.96 in 10.0 mi North 12.7 mph 21.9 mph N/A   Overcast
9:57 AM 46.9 °F - 43.0 °F 86% 29.96 in 10.0 mi North 13.8 mph 25.3 mph N/A   Overcast
10:06 AM 46.9 °F - 42.1 °F 83% 29.96 in 10.0 mi North 12.7 mph 25.3 mph N/A   Overcast
10:13 AM 46.9 °F - 43.0 °F 86% 29.96 in 10.0 mi North 12.7 mph 21.9 mph N/A   Overcast
10:21 AM 46.9 °F - 42.1 °F 83% 29.96 in 10.0 mi North 10.4 mph 19.6 mph 0.00 in Rain Light Rain
10:53 AM 46.0 °F 41.0 °F 41.0 °F 83% 29.94 in 10.0 mi NNE 10.4 mph - 0.00 in   Overcast
11:53 AM 46.0 °F 43.1 °F 41.0 °F 83% 29.89 in 10.0 mi NNE 5.8 mph 17.3 mph N/A   Overcast
12:53 PM 45.0 °F 43.5 °F 42.1 °F 90% 29.89 in 10.0 mi NE 3.5 mph - 0.01 in   Overcast
1:09 PM 45.0 °F - 42.1 °F 90% 29.87 in 10.0 mi Calm Calm - N/A   Overcast
1:36 PM 45.0 °F 40.6 °F 41.0 °F 86% 29.88 in 10.0 mi North 8.1 mph - 0.00 in Rain Light Rain
1:53 PM 46.0 °F 43.1 °F 41.0 °F 83% 29.88 in 10.0 mi Variable 5.8 mph - 0.00 in   Overcast
2:03 PM 46.0 °F 42.5 °F 42.1 °F 86% 29.87 in 10.0 mi North 6.9 mph - N/A   Overcast
2:31 PM 46.0 °F 43.1 °F 39.0 °F 76% 29.87 in 10.0 mi North 5.8 mph - N/A   Overcast
2:51 PM 44.6 °F 40.2 °F 39.2 °F 81% 29.87 in 10.0 mi NNW 8.1 mph - N/A   Overcast
2:53 PM 45.0 °F 40.6 °F 39.0 °F 80% 29.87 in 10.0 mi NNW 8.1 mph - N/A   Overcast
3:22 PM 46.0 °F 41.4 °F 37.9 °F 73% 29.87 in 10.0 mi North 9.2 mph - N/A   Overcast
3:53 PM 46.0 °F 42.5 °F 37.9 °F 73% 29.87 in 10.0 mi North 6.9 mph - N/A   Overcast
4:01 PM 45.0 °F 41.2 °F 37.9 °F 76% 29.87 in 10.0 mi North 6.9 mph - N/A   Overcast
4:53 PM 44.1 °F 37.7 °F 35.1 °F 71% 29.88 in 10.0 mi NNW 12.7 mph 23.0 mph N/A   Overcast
5:53 PM 44.1 °F 40.1 °F 34.0 °F 68% 29.91 in 10.0 mi North 6.9 mph - N/A   Overcast
6:53 PM 42.1 °F 36.6 °F 32.0 °F 67% 29.94 in 10.0 mi NNW 9.2 mph - N/A   Scattered Clouds
7:53 PM 41.0 °F 35.8 °F 28.9 °F 62% 29.95 in 10.0 mi North 8.1 mph - N/A   Mostly Cloudy
8:53 PM 39.9 °F 35.8 °F 28.9 °F 65% 29.96 in 10.0 mi Variable 5.8 mph - N/A   Clear
9:53 PM 39.0 °F 34.0 °F 28.9 °F 67% 29.96 in 10.0 mi NNW 6.9 mph - N/A   Clear
10:53 PM 39.0 °F 34.0 °F 28.9 °F 67% 29.98 in 10.0 mi NNW 6.9 mph - N/A   Clear
11:53 PM 37.9 °F 33.5 °F 27.0 °F 65% 29.98 in 10.0 mi NNW 5.8 mph - N/A   Clear